| time (UTC) | temp F | wind direction | speed knots | gust knots | rain 1hr in | rain 24hr in | rain mn in | humidity % | barometer mb |
| 20260510164605 | 62 | 307 | 1.7 | 6.1 | 0.00 | 0.00 | 0.00 | 31 | 1019.9 |
| 20260510163052 | 61 | 330 | 1.7 | 7.0 | 0.00 | 0.00 | 0.00 | 33 | 1019.7 |
| 20260510161548 | 60 | 316 | 0.9 | 7.0 | 0.00 | 0.00 | 0.00 | 36 | 1019.4 |
| 20260510160045 | 59 | 274 | 0.9 | 5.2 | 0.00 | 0.00 | 0.00 | 37 | 1019.3 |
| 20260510154546 | 59 | 216 | 0.9 | 6.1 | 0.00 | 0.00 | 0.00 | 35 | 1019.2 |
| 20260510153051 | 59 | 101 | 0.0 | 3.5 | 0.00 | 0.00 | 0.00 | 37 | 1019.3 |
| 20260510151541 | 58 | 141 | 1.7 | 5.2 | 0.00 | 0.00 | 0.00 | 36 | 1019.3 |
| 20260510150039 | 58 | 139 | 0.9 | 2.6 | 0.00 | 0.00 | 0.00 | 38 | 1019.2 |
| 20260510144537 | 57 | 348 | 0.0 | 0.9 | 0.00 | 0.00 | 0.00 | 39 | 1019.2 |
| 20260510143037 | 55 | 130 | 0.0 | 2.6 | 0.00 | 0.00 | 0.00 | 41 | 1019.3 |
| 20260510141533 | 54 | 18 | 0.9 | 2.6 | 0.00 | 0.00 | 0.00 | 41 | 1019.2 |
| 20260510140027 | 54 | 75 | 0.0 | 2.6 | 0.00 | 0.00 | 0.00 | 40 | 1019.1 |
| 20260510134525 | 53 | 80 | 0.9 | 3.5 | 0.00 | 0.00 | 0.00 | 40 | 1018.9 |
| 20260510133021 | 52 | 89 | 0.0 | 2.6 | 0.00 | 0.00 | 0.00 | 42 | 1018.7 |
| 20260510131516 | 51 | 108 | 0.0 | 2.6 | 0.00 | 0.00 | 0.00 | 48 | 1018.5 |
| 20260510130033 | 50 | 50 | 0.0 | 3.5 | 0.00 | 0.00 | 0.00 | 55 | 1018.5 |
| 20260510124509 | 48 | 92 | 0.0 | 2.6 | 0.00 | 0.00 | 0.00 | 60 | 1018.4 |
| 20260510123007 | 47 | 79 | 0.0 | 0.9 | 0.00 | 0.00 | 0.00 | 64 | 1018.1 |
| 20260510121603 | 45 | 4 | 0.0 | 0.9 | 0.00 | 0.00 | 0.00 | 68 | 1017.9 |
| 20260510120008 | 44 | 347 | 0.0 | 1.7 | 0.00 | 0.00 | 0.00 | 72 | 1017.6 |
| 20260510114609 | 41 | 44 | 0.0 | 0.9 | 0.00 | 0.00 | 0.00 | 79 | 1017.5 |
| 20260510113059 | 39 | 356 | 0.0 | 0.9 | 0.00 | 0.00 | 0.00 | 85 | 1017.3 |
| 20260510111558 | 37 | 342 | 0.0 | 0.0 | 0.00 | 0.00 | 0.00 | 87 | 1017.1 |
| 20260510110059 | 37 | 340 | 0.0 | 0.0 | 0.00 | 0.00 | 0.00 | 86 | 1017.0 |
| 20260510104557 | 37 | 337 | 0.0 | 0.0 | 0.00 | 0.00 | 0.00 | 85 | 1016.7 |
| 20260510103050 | 38 | 335 | 0.0 | 0.0 | 0.00 | 0.00 | 0.00 | 83 | 1016.5 |
| 20260510101547 | 39 | 335 | 0.0 | 0.0 | 0.00 | 0.00 | 0.00 | 82 | 1016.4 |
| 20260510100045 | 39 | 330 | 0.0 | 0.0 | 0.00 | 0.00 | 0.00 | 81 | 1016.1 |
| 20260510094542 | 40 | 332 | 0.0 | 0.0 | 0.00 | 0.00 | 0.00 | 80 | 1016.0 |
| 20260510093042 | 40 | 18 | 0.0 | 0.9 | 0.00 | 0.00 | 0.00 | 80 | 1015.7 |
| 20260510091538 | 41 | 18 | 0.0 | 0.0 | 0.00 | 0.00 | 0.00 | 75 | 1015.8 |
| 20260510090034 | 42 | 18 | 0.0 | 0.0 | 0.00 | 0.00 | 0.00 | 72 | 1015.9 |
| 20260510084535 | 44 | 17 | 0.0 | 0.0 | 0.00 | 0.00 | 0.00 | 67 | 1015.7 |
| 20260510083028 | 45 | 19 | 0.0 | 1.7 | 0.00 | 0.00 | 0.00 | 64 | 1015.5 |
| 20260510081525 | 46 | 359 | 0.0 | 1.7 | 0.00 | 0.00 | 0.00 | 63 | 1015.2 |
| 20260510080023 | 46 | 1 | 0.9 | 3.5 | 0.00 | 0.00 | 0.00 | 61 | 1015.0 |
| 20260510074521 | 47 | 8 | 0.0 | 4.3 | 0.00 | 0.00 | 0.00 | 60 | 1014.7 |
| 20260510073019 | 48 | 360 | 1.7 | 7.0 | 0.00 | 0.00 | 0.00 | 59 | 1014.6 |
| 20260510071519 | 48 | 345 | 1.7 | 4.3 | 0.00 | 0.00 | 0.00 | 62 | 1014.3 |
| 20260510070016 | 48 | 360 | 0.9 | 5.2 | 0.00 | 0.00 | 0.00 | 67 | 1014.1 |
| 20260510064525 | 47 | 3 | 0.9 | 4.3 | 0.00 | 0.00 | 0.00 | 71 | 1013.7 |
| 20260510063008 | 43 | 358 | 0.0 | 1.7 | 0.00 | 0.00 | 0.00 | 83 | 1013.5 |
| 20260510061509 | 43 | 105 | 0.0 | 0.0 | 0.00 | 0.00 | 0.00 | 82 | 1013.2 |
| 20260510060059 | 44 | 106 | 0.0 | 0.0 | 0.00 | 0.00 | 0.00 | 80 | 1013.1 |
| 20260510054558 | 44 | 79 | 0.0 | 0.0 | 0.00 | 0.00 | 0.00 | 80 | 1013.0 |
| 20260510053054 | 45 | 78 | 0.0 | 0.0 | 0.00 | 0.00 | 0.00 | 77 | 1012.8 |
| 20260510051555 | 45 | 77 | 0.0 | 0.0 | 0.00 | 0.00 | 0.00 | 76 | 1012.6 |
| 20260510050050 | 46 | 79 | 0.0 | 0.0 | 0.00 | 0.00 | 0.00 | 74 | 1012.4 |
| 20260510044545 | 47 | 79 | 0.0 | 0.0 | 0.00 | 0.00 | 0.00 | 71 | 1012.1 |
| 20260510043042 | 48 | 79 | 0.0 | 0.0 | 0.00 | 0.00 | 0.00 | 68 | 1011.8 |
| 20260510041537 | 49 | 80 | 0.0 | 0.0 | 0.00 | 0.00 | 0.00 | 65 | 1011.4 |
| 20260510040037 | 49 | 81 | 0.0 | 0.0 | 0.00 | 0.00 | 0.00 | 63 | 1011.2 |
| 20260510034533 | 50 | 79 | 0.0 | 0.9 | 0.00 | 0.00 | 0.00 | 60 | 1011.1 |
| 20260510033036 | 51 | 74 | 0.0 | 0.0 | 0.00 | 0.00 | 0.00 | 59 | 1011.0 |
| 20260510031531 | 53 | 72 | 0.0 | 1.7 | 0.00 | 0.00 | 0.00 | 57 | 1010.9 |
| 20260510030028 | 53 | 35 | 0.0 | 0.9 | 0.00 | 0.00 | 0.00 | 57 | 1010.7 |
| 20260510024527 | 54 | 354 | 0.0 | 0.0 | 0.00 | 0.00 | 0.00 | 55 | 1010.4 |
| 20260510023024 | 55 | 354 | 0.0 | 0.0 | 0.00 | 0.00 | 0.00 | 53 | 1010.1 |
| 20260510021525 | 57 | 36 | 0.0 | 4.3 | 0.00 | 0.00 | 0.00 | 49 | 1009.6 |
| 20260510020017 | 59 | 11 | 0.0 | 2.6 | 0.00 | 0.00 | 0.00 | 46 | 1009.2 |
| 20260510014514 | 62 | 19 | 1.7 | 5.2 | 0.00 | 0.00 | 0.00 | 40 | 1008.7 |
| 20260510013011 | 63 | 322 | 0.9 | 5.2 | 0.00 | 0.00 | 0.00 | 37 | 1008.3 |
| 20260510011509 | 64 | 8 | 0.0 | 3.5 | 0.00 | 0.00 | 0.00 | 37 | 1007.9 |
| 20260510010006 | 65 | 331 | 0.9 | 7.0 | 0.00 | 0.00 | 0.00 | 37 | 1007.5 |
| 20260510004503 | 66 | 326 | 1.7 | 7.8 | 0.00 | 0.00 | 0.00 | 37 | 1007.2 |
| 20260510003107 | 67 | 335 | 0.9 | 7.0 | 0.00 | 0.00 | 0.00 | 37 | 1006.9 |
| 20260510001602 | 67 | 302 | 0.0 | 5.2 | 0.00 | 0.00 | 0.00 | 36 | 1006.6 |
| 20260510000057 | 68 | 188 | 0.9 | 3.5 | 0.00 | 0.00 | 0.00 | 34 | 1006.2 |
| 20260509234611 | 69 | 319 | 0.9 | 7.0 | 0.00 | 0.00 | 0.00 | 34 | 1006.1 |
| 20260509233054 | 71 | 255 | 1.7 | 4.3 | 0.00 | 0.00 | 0.00 | 34 | 1005.9 |
| 20260509231601 | 72 | 259 | 0.9 | 5.2 | 0.00 | 0.00 | 0.00 | 32 | 1005.7 |
| 20260509230059 | 72 | 259 | 2.6 | 8.7 | 0.00 | 0.00 | 0.00 | 33 | 1005.5 |
| 20260509224559 | 72 | 257 | 1.7 | 6.1 | 0.00 | 0.00 | 0.00 | 32 | 1005.3 |
| 20260509223059 | 72 | 12 | 1.7 | 8.7 | 0.00 | 0.00 | 0.00 | 32 | 1005.1 |
| 20260509221552 | 72 | 327 | 2.6 | 10.4 | 0.00 | 0.00 | 0.00 | 30 | 1005.0 |
| 20260509220050 | 73 | 196 | 2.6 | 8.7 | 0.00 | 0.00 | 0.00 | 28 | 1004.9 |
| 20260509214549 | 73 | 198 | 2.6 | 7.8 | 0.00 | 0.00 | 0.00 | 29 | 1004.6 |
| 20260509213049 | 74 | 304 | 1.7 | 10.4 | 0.00 | 0.00 | 0.00 | 31 | 1004.4 |
| 20260509211548 | 74 | 221 | 2.6 | 15.6 | 0.00 | 0.00 | 0.00 | 29 | 1004.4 |
| 20260509210057 | 75 | 165 | 3.5 | 11.3 | 0.00 | 0.00 | 0.00 | 27 | 1004.2 |
| 20260509204547 | 75 | 269 | 1.7 | 5.2 | 0.00 | 0.00 | 0.00 | 28 | 1003.9 |
| 20260509203055 | 75 | 145 | 2.6 | 8.7 | 0.00 | 0.00 | 0.00 | 29 | 1004.1 |
| 20260509201546 | 75 | 198 | 1.7 | 11.3 | 0.00 | 0.00 | 0.00 | 31 | 1004.0 |
| 20260509200043 | 74 | 236 | 2.6 | 9.6 | 0.00 | 0.00 | 0.00 | 29 | 1004.0 |
| 20260509194542 | 73 | 280 | 3.5 | 7.8 | 0.00 | 0.00 | 0.00 | 31 | 1004.3 |
| 20260509193041 | 71 | 37 | 3.5 | 10.4 | 0.00 | 0.00 | 0.00 | 31 | 1004.3 |
| 20260509191544 | 72 | 215 | 2.6 | 12.2 | 0.00 | 0.00 | 0.00 | 31 | 1004.4 |
| 20260509190041 | 72 | 174 | 4.3 | 11.3 | 0.00 | 0.00 | 0.00 | 30 | 1004.2 |
| 20260509184546 | 73 | 274 | 0.9 | 9.6 | 0.00 | 0.00 | 0.00 | 31 | 1004.1 |
| 20260509183039 | 73 | 153 | 2.6 | 9.6 | 0.00 | 0.00 | 0.00 | 32 | 1004.1 |
| 20260509181540 | 73 | 41 | 1.7 | 6.1 | 0.00 | 0.00 | 0.00 | 32 | 1004.1 |
| 20260509180105 | 72 | 108 | 1.7 | 9.6 | 0.00 | 0.00 | 0.00 | 31 | 1004.2 |
| 20260509174535 | 72 | 14 | 0.0 | 4.3 | 0.00 | 0.00 | 0.00 | 34 | 1004.3 |
| 20260509173041 | 72 | 236 | 1.7 | 7.8 | 0.00 | 0.00 | 0.00 | 31 | 1004.3 |
| 20260509171541 | 72 | 284 | 1.7 | 10.4 | 0.00 | 0.00 | 0.00 | 33 | 1004.5 |
| 20260509170046 | 72 | 36 | 1.7 | 7.0 | 0.00 | 0.00 | 0.00 | 36 | 1004.5 |